FW9490 Weather Reports


time (UTC)temp
C
wind
direction
speed
KPH
gust
KPH
rain 1hr
cm
rain 24hr
cm
rain mn
cm
humidity
%
barometer
mb
20260503223913 -17 331 1.6 1.6 0.00 0.00 0.00 1014.9
20260503223411 -17 309 0.0 1.6 0.00 0.00 0.00 1015.0
20260503222910 -17 259 1.6 1.6 0.00 0.00 0.00 1014.9
20260503222409 -17 330 0.0 0.0 0.00 0.00 0.00 1015.0
20260503221907 -17 299 0.0 0.0 0.00 0.00 0.00 1015.1
20260503221405 -17 290 0.0 0.0 0.00 0.00 0.00 1015.1
20260503220901 -17 283 0.0 1.6 0.00 0.00 0.00 1015.0
20260503220358 -17 292 1.6 1.6 0.00 0.00 0.00 1015.2
20260503215855 -17 179 1.6 3.2 0.00 0.00 0.00 1015.4
20260503215352 -17 303 3.2 3.2 0.00 0.00 0.00 1015.3
20260503214849 -17 294 4.8 4.8 0.00 0.00 0.00 1015.5
20260503214347 -17 270 1.6 1.6 0.00 0.00 0.00 1015.4
20260503213844 -17 342 0.0 1.6 0.00 0.00 0.00 1015.4
20260503213342 -17 15 1.6 3.2 0.00 0.00 0.00 1015.5
20260503212838 -17 269 1.6 1.6 0.00 0.00 0.00 1015.4
20260503212336 -17 244 1.6 3.2 0.00 0.00 0.00 1015.6
20260503211833 -17 288 1.6 1.6 0.00 0.00 0.00 1015.4
20260503211330 -17 322 4.8 4.8 0.00 0.00 0.00 1015.6
20260503210825 -17 316 3.2 3.2 0.00 0.00 0.00 1015.8
20260503210323 -17 257 1.6 1.6 0.00 0.00 0.00 1015.7
20260503205817 -17 298 0.0 1.6 0.00 0.00 0.00 1015.7
20260503205314 -17 279 1.6 1.6 0.00 0.00 0.00 1016.1
20260503204811 -17 279 1.6 3.2 0.00 0.00 0.00 1015.8
20260503204309 -17 258 1.6 3.2 0.00 0.00 0.00 1016.3
20260503203806 -17 265 1.6 1.6 0.00 0.00 0.00 1016.4
20260503203303 -17 296 1.6 1.6 0.00 0.00 0.00 1016.5
20260503202800 -17 260 0.0 1.6 0.00 0.00 0.00 1016.2
20260503202258 -17 356 1.6 1.6 0.00 0.00 0.00 1016.3
20260503201756 -17 305 1.6 3.2 0.00 0.00 0.00 1016.6
20260503201253 -17 323 0.0 1.6 0.00 0.00 0.00 1016.7
20260503200750 -17 288 0.0 1.6 0.00 0.00 0.00 1016.7
20260503200245 -17 166 3.2 3.2 0.00 0.00 0.00 1017.0
20260503195742 -17 120 1.6 1.6 0.00 0.00 0.00 1016.7
20260503195239 -17 199 1.6 1.6 0.00 0.00 0.00 1017.0
20260503194737 -17 252 1.6 1.6 0.00 0.00 0.00 1017.1
20260503194232 -17 312 0.0 1.6 0.00 0.00 0.00 1016.9
20260503193728 -17 291 0.0 0.0 0.00 0.00 0.00 1017.3
20260503193225 -17 338 0.0 0.0 0.00 0.00 0.00 1017.2
20260503192721 -17 321 4.8 4.8 0.00 0.00 0.00 1017.3
20260503192216 -17 273 0.0 1.6 0.00 0.00 0.00 1017.4
20260503191713 -17 281 1.6 3.2 0.00 0.00 0.00 1017.5
20260503191210 -17 295 3.2 3.2 0.00 0.00 0.00 1017.6
20260503190707 -17 297 0.0 0.0 0.00 0.00 0.00 1017.5
20260503190203 -17 116 1.6 3.2 0.00 0.00 0.00 1017.6
20260503185701 -17 236 0.0 1.6 0.00 0.00 0.00 1017.5
20260503185156 -17 255 0.0 1.6 0.00 0.00 0.00 1017.8
20260503184651 -17 263 1.6 3.2 0.00 0.00 0.00 1017.7
20260503184148 -17 274 6.4 8.0 0.00 0.00 0.00 1017.7
20260503183644 -17 256 0.0 0.0 0.00 0.00 0.00 1017.7
20260503183142 -17 0 0.0 0.0 0.00 0.00 0.00 1017.9
20260503182639 -17 268 3.2 4.8 0.00 0.00 0.00 1017.8
20260503182138 -17 274 0.0 0.0 0.00 0.00 0.00 1017.9
20260503181635 -17 242 0.0 0.0 0.00 0.00 0.00 1018.0
20260503181131 -17 359 3.2 3.2 0.00 0.00 0.00 1018.2
20260503180628 -17 206 0.0 0.0 0.00 0.00 0.00 1018.2
20260503180126 -17 266 1.6 1.6 0.00 0.00 0.00 1018.3
20260503175622 -17 307 4.8 4.8 0.00 0.00 0.00 1018.3
20260503175119 -17 276 0.0 1.6 0.00 0.00 0.00 1018.2
20260503174616 -17 277 0.0 0.0 0.00 0.00 0.00 1018.3
20260503174114 -17 15 1.6 1.6 0.00 0.00 0.00 1018.4
20260503173608 -17 321 4.8 9.7 0.00 0.00 0.00 1018.6
20260503173105 -17 130 1.6 1.6 0.00 0.00 0.00 1018.6
20260503172602 -17 124 1.6 3.2 0.00 0.00 0.00 1018.7
20260503172059 -17 275 0.0 0.0 0.00 0.00 0.00 1018.7
20260503171555 -17 295 0.0 0.0 0.00 0.00 0.00 1018.6
20260503171053 -17 292 1.6 3.2 0.00 0.00 0.00 1018.9
20260503170549 -17 83 1.6 1.6 0.00 0.00 0.00 1018.6
20260503150942 -17 17 1.6 3.2 0.00 0.00 0.00 1019.9
20260503150439 -17 61 0.0 1.6 0.00 0.00 0.00 1019.9
20260503131331 -17 336 0.0 1.6 0.00 0.00 0.00 1019.7
20260503130829 -17 322 0.0 1.6 0.00 0.00 0.00 1019.9
20260503130326 -17 253 0.0 0.0 0.00 0.00 0.00 1019.8
20260503110714 -17 315 0.0 0.0 0.00 0.00 0.00 1018.6
20260503110206 -17 327 0.0 0.0 0.00 0.00 0.00 1018.3
20260503100132 -17 297 0.0 0.0 0.00 0.00 0.00 1017.8
20260503081516 -17 304 0.0 0.0 0.00 0.00 0.00 1017.5
20260503081013 -17 282 0.0 1.6 0.00 0.00 0.00 1017.4
20260503080509 -17 321 0.0 0.0 0.00 0.00 0.00 1017.1
20260503072442 -17 325 0.0 1.6 0.00 0.00 0.00 1016.7
20260503071939 -17 324 0.0 0.0 0.00 0.00 0.00 1016.8
20260503071431 -17 331 0.0 0.0 0.00 0.00 0.00 1016.8
20260503070927 -17 302 0.0 0.0 0.00 0.00 0.00 1016.9
20260503070424 -17 292 0.0 0.0 0.00 0.00 0.00 1017.1
20260503054838 -17 288 0.0 0.0 0.00 0.00 0.00 1016.5
20260503054334 -17 342 0.0 0.0 0.00 0.00 0.00 1016.3
20260503053832 -17 335 0.0 0.0 0.00 0.00 0.00 1016.4
20260503053330 -17 341 1.6 1.6 0.00 0.00 0.00 1016.5
20260503052826 -17 314 1.6 3.2 0.00 0.00 0.00 1016.5
20260503052323 -17 355 1.6 1.6 0.00 0.00 0.00 1016.5
20260503051819 -17 346 1.6 1.6 0.00 0.00 0.00 1016.2
20260503051316 -17 355 1.6 1.6 0.00 0.00 0.00 1016.5
20260503050812 -17 346 0.0 1.6 0.00 0.00 0.00 1016.1
20260503050309 -17 308 0.0 0.0 0.00 0.00 0.00 1016.4
20260503045807 -17 315 0.0 1.6 0.00 0.00 0.00 1016.3
20260503045305 -17 297 0.0 0.0 0.00 0.00 0.00 1016.3
20260503044800 -17 287 0.0 0.0 0.00 0.00 0.00 1016.5
20260503044257 -17 300 0.0 1.6 0.00 0.00 0.00 1016.5
20260503043754 -17 306 0.0 0.0 0.00 0.00 0.00 1016.3
20260503043251 -17 300 0.0 0.0 0.00 0.00 0.00 1016.4
20260503042747 -17 353 1.6 1.6 0.00 0.00 0.00 1016.1
20260503042244 -17 1 1.6 1.6 0.00 0.00 0.00 1016.1
20260503041740 -17 301 0.0 0.0 0.00 0.00 0.00 1016.1
20260503041238 -17 305 1.6 1.6 0.00 0.00 0.00 1016.2
20260503040735 -17 338 0.0 0.0 0.00 0.00 0.00 1016.1
20260503040233 -17 23 1.6 1.6 0.00 0.00 0.00 1016.0
20260503035729 -17 358 1.6 1.6 0.00 0.00 0.00 1016.2
20260503035227 -17 318 0.0 0.0 0.00 0.00 0.00 1016.0
20260503034724 -17 294 3.2 3.2 0.00 0.00 0.00 1016.1
20260503034221 -17 338 0.0 1.6 0.00 0.00 0.00 1016.1
20260503033718 -17 347 3.2 3.2 0.00 0.00 0.00 1015.7
20260503033215 -17 352 3.2 3.2 0.00 0.00 0.00 1015.8
20260503032713 -17 342 1.6 1.6 0.00 0.00 0.00 1015.7
20260503032212 -17 4 4.8 4.8 0.00 0.00 0.00 1015.8
20260503031708 -17 322 0.0 1.6 0.00 0.00 0.00 1016.0
20260503031207 -17 327 3.2 4.8 0.00 0.00 0.00 1016.0
20260503030702 -17 324 3.2 3.2 0.00 0.00 0.00 1016.2
20260503030159 -17 282 1.6 3.2 0.00 0.00 0.00 1015.8
20260503025656 -17 322 1.6 1.6 0.00 0.00 0.00 1015.7
20260503025154 -17 306 1.6 1.6 0.00 0.00 0.00 1015.8
20260503024650 -17 0 1.6 1.6 0.00 0.00 0.00 1015.6
20260503024147 -17 15 3.2 3.2 0.00 0.00 0.00 1015.6
20260503023644 -17 11 3.2 3.2 0.00 0.00 0.00 1015.6
20260503023141 -17 18 4.8 4.8 0.00 0.00 0.00 1015.4
20260503022638 -17 16 3.2 3.2 0.00 0.00 0.00 1015.7
20260503022137 -17 270 3.2 4.8 0.00 0.00 0.00 1015.6
20260503021634 -17 3 4.8 4.8 0.00 0.00 0.00 1015.5
20260503021131 -17 322 1.6 1.6 0.00 0.00 0.00 1015.4
20260503020628 -17 17 3.2 3.2 0.00 0.00 0.00 1015.5
20260503020126 -17 334 3.2 3.2 0.00 0.00 0.00 1015.2
20260503015622 -17 322 1.6 1.6 0.00 0.00 0.00 1015.1
20260503015119 -17 332 3.2 3.2 0.00 0.00 0.00 1015.1
20260503014615 -17 314 1.6 1.6 0.00 0.00 0.00 1015.2
20260503014113 -17 13 4.8 8.0 0.00 0.00 0.00 1015.2
20260503013610 -17 0 1.6 3.2 0.00 0.00 0.00 1015.1
20260503013108 -17 319 0.0 0.0 0.00 0.00 0.00 1015.0
20260503012605 -17 345 1.6 1.6 0.00 0.00 0.00 1014.7
20260503012102 -17 334 0.0 1.6 0.00 0.00 0.00 1014.7
20260503011558 -17 289 0.0 1.6 0.00 0.00 0.00 1014.7
20260503011055 -17 345 1.6 3.2 0.00 0.00 0.00 1014.8
20260503010551 -17 292 1.6 1.6 0.00 0.00 0.00 1014.5
20260503010049 -17 310 1.6 1.6 0.00 0.00 0.00 1014.4
20260503005546 -17 280 0.0 0.0 0.00 0.00 0.00 1014.4
20260503005043 -17 331 0.0 1.6 0.00 0.00 0.00 1014.4
20260503004539 -17 300 0.0 0.0 0.00 0.00 0.00 1014.4
20260503004038 -17 301 0.0 0.0 0.00 0.00 0.00 1014.2
20260503003534 -17 0 3.2 4.8 0.00 0.00 0.00 1013.9
20260503003031 -17 288 1.6 1.6 0.00 0.00 0.00 1014.2
20260503002528 -17 317 1.6 1.6 0.00 0.00 0.00 1013.8
20260503002025 -17 299 0.0 0.0 0.00 0.00 0.00 1014.1
20260503001521 -17 299 1.6 3.2 0.00 0.00 0.00 1013.7
20260503001019 -17 304 1.6 1.6 0.00 0.00 0.00 1013.7
20260503000516 -17 22 3.2 3.2 0.00 0.00 0.00 1013.8
20260503000013 -17 317 0.0 0.0 0.00 0.00 0.00 1013.6
20260502235509 -17 308 0.0 0.0 0.00 0.00 0.00 1013.7
20260502235007 -17 12 4.8 4.8 0.00 0.00 0.00 1013.7
20260502234503 -17 322 1.6 1.6 0.00 0.00 0.00 1013.5
20260502234001 -17 357 1.6 1.6 0.00 0.00 0.00 1013.5
20260502233501 -17 61 3.2 3.2 0.00 0.00 0.00 1013.6
20260502232958 -17 2 0.0 1.6 0.00 0.00 0.00 1013.5
20260502232455 -17 318 4.8 4.8 0.00 0.00 0.00 1013.7
20260502231951 -17 357 3.2 3.2 0.00 0.00 0.00 1013.3
20260502231449 -17 9 1.6 1.6 0.00 0.00 0.00 1013.4
20260502230947 -17 322 1.6 3.2 0.00 0.00 0.00 1013.4
20260502230444 -17 83 1.6 1.6 0.00 0.00 0.00 1013.3
20260502225942 -17 289 1.6 3.2 0.00 0.00 0.00 1013.1
20260502225438 -17 336 3.2 3.2 0.00 0.00 0.00 1013.3
20260502224935 -17 347 3.2 4.8 0.00 0.00 0.00 1013.3
20260502224431 -17 8 3.2 4.8 0.00 0.00 0.00 1013.3